Weather History for KLEB - March, 2013

Change the Weather History Date:

Friday, March 15, 2013

  Actual Average Record
Temperature  
Mean Temperature 26 °F -  
Max Temperature 37 °F 43 °F 70 °F (1990)
Min Temperature 16 °F 24 °F -3 °F (1926)
Degree Days  
Heating Degree Days 38    
Moisture  
Dew Point 16 °F    
Average Humidity 64    
Maximum Humidity 93    
Minimum Humidity 31    
Precipitation  
Precipitation 0.03 in - - ()
Sea Level Pressure  
Sea Level Pressure 29.71 in    
Wind  
Wind Speed 7 mph (NNW)    
Max Wind Speed 15 mph    
Max Gust Speed 23 mph    
Visibility 8 miles    
Events Fog , Snow    
Averages and records for this station are not official NWS values.
T = Trace of Precipitation, MM = Missing Value Source: NWS Daily Summary

Daily Weather History Graph

Daily Weather History Graph

Search for Another Location

Airport or City:

Trip Planner

Search our weather history database for the weather conditions in past years. The results will help you decide how hot, cold, wet, or windy it might be!

Date:

Astronomy

Mar. 15, 2013 Rise Set
Actual Time 7:01 AM EDT 6:55 PM EDT
Civil Twilight 6:32 AM EDT 7:24 PM EDT
Nautical Twilight 5:59 AM EDT 7:57 PM EDT
Astronomical Twilight 5:25 AM EDT 8:31 PM EDT
Moon 8:41 AM EDT (3/15) 11:16 PM EDT (3/15)
Length of Visible Light 12h 51m
Length of Day
11h 54m
Waxing Crescent, 15% of the Moon is Illuminated
Mar 15
Waxing Crescent
Mar 19
First Quarter
Mar 27
Full
Apr 3
Last Quarter
Apr 10
New

Hourly Weather History & Observations

Time (EDT) Temp. Windchill Dew Point Humidity Pressure Visibility Wind Dir Wind Speed Gust Speed Precip Events Conditions
12:53 AM 19.0 °F 8.2 °F 8.1 °F 62% 29.89 in 10.0 mi NNW 9.2 mph - N/A   Overcast
1:53 AM 19.0 °F 8.2 °F 6.1 °F 57% 29.90 in 10.0 mi NW 9.2 mph - N/A   Overcast
2:53 AM 18.0 °F 9.8 °F 3.0 °F 52% 29.90 in 10.0 mi NW 5.8 mph - N/A   Partly Cloudy
3:53 AM 17.1 °F 6.6 °F 3.0 °F 54% 29.89 in 10.0 mi NNW 8.1 mph - N/A   Clear
4:53 AM 17.1 °F 7.6 °F 3.9 °F 56% 29.88 in 10.0 mi North 6.9 mph - N/A   Scattered Clouds
5:53 AM 17.1 °F 8.7 °F 5.0 °F 59% 29.89 in 10.0 mi NNE 5.8 mph - N/A   Scattered Clouds
6:53 AM 16.0 °F 7.4 °F 5.0 °F 62% 29.89 in 10.0 mi North 5.8 mph - N/A   Clear
7:53 AM 18.0 °F 12.7 °F 5.0 °F 57% 29.88 in 10.0 mi NNW 3.5 mph - N/A   Clear
8:53 AM 19.0 °F - 5.0 °F 54% 29.87 in 10.0 mi Calm Calm - N/A   Clear
9:53 AM 24.1 °F 19.7 °F 6.1 °F 46% 29.84 in 10.0 mi NNE 3.5 mph - N/A   Clear
10:53 AM 25.0 °F - 5.0 °F 43% 29.81 in 10.0 mi Calm Calm - N/A   Mostly Cloudy
11:53 AM 30.0 °F - 6.1 °F 36% 29.76 in 10.0 mi Calm Calm - N/A   Mostly Cloudy
12:53 PM 32.0 °F 24.8 °F 5.0 °F 32% 29.72 in 10.0 mi SSW 8.1 mph - N/A   Overcast
1:53 PM 33.1 °F 26.1 °F 5.0 °F 31% 29.68 in 10.0 mi South 8.1 mph - N/A   Overcast
2:53 PM 35.1 °F 26.9 °F 12.0 °F 39% 29.64 in 10.0 mi South 11.5 mph - N/A   Overcast
3:53 PM 37.0 °F 31.0 °F 12.9 °F 37% 29.62 in 10.0 mi WSW 8.1 mph 18.4 mph N/A   Overcast
4:53 PM 36.0 °F 26.7 °F 17.1 °F 46% 29.60 in 10.0 mi SSW 15.0 mph 20.7 mph N/A   Overcast
5:53 PM 35.1 °F 26.9 °F 19.9 °F 54% 29.60 in 10.0 mi SW 11.5 mph 21.9 mph N/A   Mostly Cloudy
6:53 PM 34.0 °F 28.8 °F 21.9 °F 61% 29.61 in 10.0 mi West 5.8 mph - N/A   Mostly Cloudy
7:36 PM 30.2 °F - 24.8 °F 80% 29.58 in 8.0 mi Calm Calm - 0.00 in Snow Light Snow
7:48 PM 30.2 °F - 24.8 °F 80% 29.58 in 8.0 mi Calm Calm - 0.00 in   Mostly Cloudy
7:53 PM 32.0 °F - 25.0 °F 75% 29.62 in 7.0 mi Calm Calm - 0.00 in Snow Light Snow
8:53 PM 32.0 °F 28.7 °F 27.0 °F 82% 29.61 in 10.0 mi South 3.5 mph - 0.00 in   Overcast
9:26 PM 32.0 °F 28.7 °F 26.6 °F 80% 29.59 in 4.0 mi NNW 3.5 mph - 0.00 in Snow Light Snow
9:31 PM 32.0 °F 27.5 °F 28.4 °F 87% 29.60 in 1.5 mi NNW 4.6 mph - 0.00 in Snow Light Snow
9:37 PM 30.2 °F 26.7 °F 28.4 °F 93% 29.60 in 0.5 mi NNW 3.5 mph - 0.01 in Fog , Snow Snow
9:49 PM 30.2 °F 19.8 °F 28.4 °F 93% 29.62 in 0.5 mi NNW 13.8 mph 21.9 mph 0.02 in Fog , Snow Snow
9:53 PM 30.9 °F 20.7 °F 28.0 °F 89% 29.65 in 0.5 mi North 13.8 mph 23.0 mph 0.03 in Fog , Snow Snow
9:58 PM 30.2 °F 21.3 °F 26.6 °F 86% 29.62 in 1.0 mi North 10.4 mph 23.0 mph 0.00 in Snow Light Snow
10:02 PM 28.4 °F 18.5 °F 24.8 °F 86% 29.62 in 2.0 mi NNE 11.5 mph 20.7 mph 0.00 in Snow Light Snow
10:10 PM 28.4 °F 20.4 °F 24.8 °F 86% 29.63 in 7.0 mi North 8.1 mph - 0.00 in   Overcast
10:25 PM 30.2 °F 22.6 °F 21.2 °F 69% 29.65 in 10.0 mi North 8.1 mph - 0.00 in   Overcast
10:53 PM 28.9 °F 22.8 °F 19.0 °F 67% 29.69 in 10.0 mi North 5.8 mph - 0.00 in   Mostly Cloudy
11:53 PM 26.1 °F - 17.1 °F 69% 29.72 in 10.0 mi Calm Calm - N/A   Mostly Cloudy